OPS 4682 DEB, 55262

Orbit data source: Space-Track

OPS 4682 DEB, 55262 is space debris in LEO originally from a launch on Sat, 03 Apr 1965 UTC launched from the Air Force Western Test Range (AFWTR). Debris objects in space refer to the collection of defunct objects orbiting the Earth. Examples of debris include non-operational satellites, rocket bodies, and fragments generated from explosions, collisions, or faulty payload assembly.

Loading next visibility...
Identifier
55262, 1965-027HN
Orbit
LEO
Country
Flag of USUS
Related business
Manufacturer
Unknown
Mission
Spacecraft
Bus & Motor
Unknown
Mass
Unknown
Launch date (UTC)
1965-04-03 (61 years ago)
Launch vehicle
Unknown
Launch site
Air Force Western Test Range (AFWTR)
Object type
Payload
Rocket body
Debris
Shape & HBR
Unknown shape, 0.1 m
Radar Cross Section
Medium (>0.1 m² and <1 m²)

Expand to show TLE details & history
Last TLE update: 15 hours ago

TLE from 15 hours ago
0 OPS 4682 DEB
1 55262U 65027HN  26254.30527802  .00000237  00000-0  80428-3 0  9993
2 55262  90.2553  13.5432 0028277 267.8960  91.8922 12.96352811514063
Epoch: 2026-09-11T07:19Z
TLE epoch observation values (Epoch: 2026-09-11T07:19:36.020Z)
Latitude
-0.00003°
Longitude
-86.68742°
Altitude
1,280.064 km
Speed
7.215 km/s
True Right ascension
00h 54m 10s
True Declination
0° 00' 00"
Sunlit
Object was in full shadow at epoch
Visualization orbit readout
Latitude
Unknown
Longitude
Unknown
Altitude
Unknown
Speed
Unknown
Apparent Right ascension
Unknown
Apparent Declination
Unknown
Sunlit
N/A
Visualization observer readout
Local Sidereal Time
15:09:13
Azimuth
Unknown
Elevation
Unknown
Doppler factor
Unknown
Orbital elements
Apogee altitude
1,295.179 km
Perigee altitude
1,251.906 km
Semi-major axis
7,651.679 km
Eccentricity
0.00283
Inclination
90.2553°
RAAN
13.5432°
Arg. of periapsis
267.896°
True anomaly
92.21601°
Mean anomaly
91.8922°
Eccentric anomaly
92.05411°
Mean motion
3.24271 °/min
Orbital period
111.02 mins
BSTAR
0.00080428
Loading maneuver chart data...
Computing Atmospheric mass density...
Loading historical data...
Loading historical data...
Loading historical data...
Loading historical data...
Loading historical data...
Loading historical data...
Loading historical data...

Documentation

Showing up to 5 results
|